QPF
0.00 0.00 0.00 0.00 0.00 0.00 0.00 0.00 0.00 0.00 0.00 0.00 0.00 0.00 0.00 0.00 0.00 0.00 0.00 0.00 0.00 0.00 0.00 0.00 0.00 0.01 0.01 0.01 0.01 0.00 0.01 0.01 0.01 0.01 0.00 0.00 0.00 0.00 0.00 0.00 0.00 0.00 0.00 0.00 0.00 0.00 0.00 0.00 0.00
0.00 0.00 0.00 0.00 0.00 0.00 0.00 0.00 0.00 0.00 0.00 0.00 0.00 0.00 0.00 0.00 0.00 0.00 0.00 0.00 0.00 0.00 0.00 0.00 0.00 0.01 0.01 0.00 0.00 0.01 0.01 0.00 0.01 0.01 0.00 0.00 0.00 0.00 0.00 0.00 0.00 0.00 0.00 0.00 0.00 0.00 0.00 0.00 0.00
0.00 0.00 0.00 0.00 0.00 0.00 0.00 0.00 0.00 0.00 0.00 0.00 0.00 0.00 0.00 0.00 0.00 0.00 0.00 0.00 0.00 0.00 0.00 0.00 0.01 0.01 0.01 0.00 0.00 0.00 0.00 0.00 0.01 0.01 0.00 0.00 0.00 0.00 0.00 0.00 0.00 0.00 0.00 0.00 0.00 0.00 0.00 0.00 0.00
0.00 0.00 0.00 0.00 0.00 0.00 0.00 0.00 0.00 0.00 0.00 0.00 0.00 0.00 0.00 0.00 0.00 0.00 0.00 0.00 0.00 0.00 0.00 0.00 0.01 0.01 0.01 0.00 0.00 0.00 0.00 0.01 0.02 0.01 0.00 0.00 0.00 0.00 0.00 0.00 0.00 0.00 0.00 0.00 0.00 0.00 0.00 0.00 0.00
0.00 0.00 0.00 0.00 0.00 0.00 0.00 0.00 0.00 0.00 0.00 0.00 0.00 0.00 0.00 0.00 0.00 0.00 0.00 0.00 0.00 0.00 0.00 0.00 0.01 0.01 0.01 0.01 0.00 0.00 0.00 0.01 0.01 0.00 0.00 0.00 0.00 0.00 0.00 0.00 0.00 0.00 0.00 0.00 0.00 0.00 0.00 0.00 0.00
0.00 0.00 0.00 0.00 0.00 0.00 0.00 0.00 0.00 0.00 0.00 0.00 0.00 0.00 0.00 0.00 0.00 0.00 0.00 0.00 0.00 0.00 0.00 0.00 0.01 0.01 0.01 0.01 0.00 0.00 0.00 0.01 0.01 0.00 0.00 0.00 0.00 0.00 0.00 0.00 0.00 0.00 0.00 0.00 0.00 0.00 0.00 0.00 0.00
0.00 0.00 0.00 0.00 0.00 0.00 0.00 0.00 0.00 0.00 0.00 0.00 0.00 0.00 0.00 0.00 0.00 0.00 0.00 0.00 0.00 0.00 0.00 0.00 0.01 0.01 0.01 0.01 0.00 0.00 0.00 0.01 0.00 0.00 0.00 0.00 0.00 0.00 0.00 0.00 0.00 0.00 0.00 0.00 0.00 0.00 0.00 0.00 0.00
0.00 0.00 0.00 0.00 0.00 0.00 0.00 0.00 0.00 0.00 0.00 0.00 0.00 0.00 0.00 0.00 0.00 0.00 0.00 0.00 0.00 0.00 0.00 0.00 0.00 0.00 0.01 0.01 0.01 0.00 0.00 0.00 0.00 0.00 0.00 0.00 0.00 0.00 0.00 0.00 0.00 0.00 0.00 0.00 0.00 0.00 0.00 0.00 0.00
0.00 0.00 0.00 0.00 0.00 0.00 0.00 0.00 0.00 0.00 0.00 0.00 0.00 0.00 0.00 0.00 0.00 0.00 0.00 0.00 0.00 0.00 0.00 0.00 0.00 0.00 0.00 0.01 0.00 0.00 0.00 0.00 0.00 0.00 0.00 0.00 0.00 0.00 0.00 0.00 0.00 0.00 0.01 0.01 0.01 0.01 0.00 0.00 0.00
0.00 0.00 0.00 0.00 0.00 0.00 0.00 0.00 0.00 0.00 0.00 0.00 0.00 0.00 0.00 0.00 0.00 0.00 0.00 0.00 0.00 0.00 0.00 0.00 0.00 0.00 0.00 0.00 0.00 0.00 0.00 0.00 0.00 0.00 0.00 0.00 0.00 0.00 0.00 0.00 0.00 0.00 0.01 0.01 0.01 0.00 0.00 0.00 0.00
0.00 0.00 0.00 0.00 0.00 0.00 0.00 0.00 0.00 0.00 0.00 0.00 0.00 0.00 0.00 0.00 0.00 0.00 0.00 0.00 0.00 0.00 0.00 0.00 0.00 0.00 0.00 0.00 0.00 0.00 0.00 0.00 0.00 0.00 0.00 0.00 0.00 0.00 0.00 0.00 0.00 0.00 0.00 0.00 0.00 0.00 0.00 0.00 0.00
0.00 0.00 0.00 0.00 0.00 0.00 0.00 0.00 0.00 0.00 0.00 0.00 0.00 0.00 0.00 0.00 0.00 0.00 0.00 0.00 0.00 0.00 0.00 0.00 0.00 0.00 0.00 0.00 0.00 0.00 0.00 0.00 0.00 0.00 0.00 0.00 0.00 0.00 0.00 0.00 0.00 0.00 0.00 0.00 0.00 0.00 0.00 0.00 0.00
0.00 0.00 0.00 0.00 0.00 0.00 0.00 0.00 0.00 0.00 0.00 0.00 0.00 0.00 0.00 0.00 0.00 0.00 0.00 0.00 0.00 0.00 0.00 0.00 0.00 0.00 0.00 0.00 0.00 0.00 0.00 0.00 0.00 0.00 0.00 0.00 0.00 0.00 0.00 0.00 0.00 0.00 0.00 0.00 0.00 0.00 0.00 0.00 0.00
0.00 0.00 0.00 0.00 0.00 0.00 0.00 0.00 0.00 0.00 0.00 0.00 0.00 0.00 0.00 0.00 0.00 0.00 0.00 0.00 0.00 0.00 0.00 0.00 0.00 0.00 0.00 0.00 0.00 0.00 0.00 0.00 0.00 0.00 0.00 0.00 0.00 0.00 0.00 0.00 0.00 0.00 0.00 0.00 0.00 0.00 0.00 0.00 0.00
0.00 0.00 0.00 0.00 0.00 0.00 0.00 0.00 0.00 0.00 0.00 0.00 0.00 0.00 0.00 0.00 0.00 0.00 0.00 0.00 0.00 0.00 0.00 0.00 0.00 0.00 0.00 0.01 0.01 0.01 0.00 0.00 0.00 0.00 0.00 0.00 0.00 0.00 0.00 0.00 0.00 0.00 0.00 0.00 0.00 0.00 0.00 0.00 0.00
0.00 0.00 0.00 0.00 0.00 0.00 0.00 0.00 0.00 0.00 0.00 0.00 0.00 0.00 0.00 0.00 0.00 0.00 0.00 0.00 0.00 0.00 0.00 0.00 0.00 0.00 0.00 0.01 0.01 0.01 0.01 0.01 0.01 0.01 0.00 0.00 0.00 0.00 0.00 0.00 0.00 0.00 0.00 0.00 0.00 0.00 0.00 0.00 0.00
0.00 0.00 0.00 0.00 0.00 0.00 0.00 0.00 0.00 0.00 0.00 0.00 0.00 0.00 0.00 0.00 0.00 0.00 0.00 0.00 0.00 0.00 0.00 0.00 0.00 0.00 0.00 0.01 0.01 0.01 0.01 0.01 0.01 0.01 0.01 0.00 0.00 0.00 0.00 0.00 0.00 0.00 0.00 0.00 0.00 0.00 0.00 0.00 0.00
0.00 0.00 0.00 0.00 0.00 0.00 0.00 0.00 0.00 0.00 0.00 0.00 0.00 0.00 0.00 0.00 0.00 0.00 0.00 0.00 0.00 0.00 0.00 0.00 0.00 0.00 0.00 0.00 0.01 0.00 0.01 0.01 0.01 0.00 0.00 0.00 0.00 0.00 0.00 0.00 0.00 0.00 0.00 0.00 0.00 0.00 0.00 0.00 0.00
0.00 0.00 0.00 0.00 0.00 0.00 0.00 0.00 0.00 0.00 0.00 0.00 0.00 0.00 0.00 0.00 0.00 0.00 0.00 0.00 0.00 0.00 0.00 0.00 0.00 0.00 0.00 0.00 0.00 0.01 0.01 0.00 0.00 0.00 0.00 0.00 0.00 0.00 0.00 0.00 0.00 0.00 0.00 0.00 0.00 0.00 0.00 0.00 0.00
0.00 0.00 0.00 0.00 0.00 0.00 0.00 0.00 0.00 0.00 0.00 0.00 0.00 0.00 0.00 0.00 0.00 0.00 0.00 0.00 0.00 0.00 0.00 0.00 0.00 0.00 0.00 0.00 0.00 0.00 0.00 0.00 0.00 0.00 0.00 0.00 0.00 0.00 0.00 0.00 0.00 0.00 0.00 0.00 0.00 0.00 0.00 0.00 0.00
0.00 0.00 0.00 0.00 0.00 0.00 0.00 0.00 0.00 0.00 0.00 0.00 0.00 0.00 0.00 0.00 0.00 0.00 0.00 0.00 0.00 0.00 0.00 0.00 0.00 0.00 0.00 0.00 0.00 0.00 0.00 0.00 0.00 0.00 0.00 0.00 0.00 0.00 0.00 0.00 0.00 0.00 0.00 0.00 0.00 0.00 0.00 0.00 0.00
0.00 0.00 0.00 0.00 0.00 0.00 0.00 0.00 0.00 0.00 0.00 0.00 0.00 0.00 0.00 0.00 0.00 0.00 0.00 0.00 0.00 0.00 0.00 0.00 0.00 0.00 0.00 0.00 0.00 0.00 0.00 0.00 0.00 0.00 0.00 0.00 0.00 0.00 0.00 0.00 0.00 0.00 0.00 0.00 0.00 0.00 0.00 0.00 0.00
0.00 0.00 0.00 0.00 0.00 0.00 0.00 0.00 0.00 0.00 0.00 0.00 0.00 0.00 0.00 0.00 0.00 0.00 0.00 0.00 0.00 0.00 0.00 0.00 0.00 0.00 0.00 0.00 0.00 0.00 0.00 0.00 0.00 0.00 0.00 0.00 0.00 0.00 0.00 0.00 0.00 0.00 0.00 0.00 0.00 0.00 0.00 0.00 0.00
0.00 0.00 0.00 0.00 0.00 0.00 0.00 0.00 0.00 0.00 0.00 0.00 0.00 0.00 0.00 0.00 0.00 0.00 0.00 0.00 0.00 0.00 0.00 0.00 0.00 0.00 0.00 0.00 0.00 0.00 0.00 0.00 0.00 0.00 0.00 0.00 0.00 0.00 0.00 0.00 0.00 0.00 0.00 0.00 0.00 0.00 0.00 0.00 0.00
0.00 0.00 0.00 0.00 0.00 0.00 0.00 0.00 0.00 0.00 0.00 0.00 0.00 0.00 0.00 0.00 0.00 0.00 0.00 0.00 0.00 0.00 0.00 0.00 0.00 0.00 0.00 0.00 0.00 0.00 0.00 0.00 0.00 0.00 0.00 0.00 0.00 0.00 0.00 0.00 0.00 0.00 0.00 0.00 0.00 0.00 0.00 0.00 0.00
0.00 0.00 0.00 0.00 0.00 0.00 0.00 0.00 0.00 0.00 0.00 0.00 0.00 0.00 0.00 0.00 0.00 0.00 0.00 0.00 0.00 0.00 0.00 0.00 0.00 0.00 0.00 0.00 0.00 0.00 0.00 0.00 0.00 0.00 0.00 0.00 0.00 0.00 0.00 0.00 0.00 0.00 0.00 0.00 0.00 0.00 0.00 0.00 0.00
0.00 0.00 0.00 0.00 0.00 0.00 0.00 0.00 0.00 0.00 0.00 0.00 0.00 0.00 0.00 0.00 0.00 0.00 0.00 0.00 0.00 0.00 0.00 0.00 0.00 0.00 0.00 0.00 0.00 0.00 0.00 0.00 0.00 0.00 0.00 0.00 0.00 0.00 0.00 0.00 0.00 0.00 0.00 0.00 0.00 0.00 0.00 0.00 0.00
0.00 0.00 0.00 0.00 0.00 0.00 0.00 0.00 0.00 0.00 0.00 0.00 0.00 0.00 0.00 0.00 0.00 0.00 0.00 0.00 0.00 0.00 0.00 0.00 0.00 0.00 0.00 0.00 0.00 0.00 0.00 0.00 0.00 0.00 0.00 0.00 0.00 0.00 0.00 0.00 0.00 0.00 0.00 0.00 0.00 0.00 0.00 0.00 0.00
0.00 0.00 0.00 0.00 0.00 0.00 0.00 0.00 0.00 0.00 0.00 0.00 0.00 0.00 0.00 0.00 0.00 0.00 0.00 0.00 0.00 0.00 0.00 0.00 0.00 0.00 0.00 0.00 0.00 0.00 0.00 0.00 0.00 0.00 0.00 0.00 0.00 0.00 0.00 0.00 0.00 0.00 0.00 0.00 0.00 0.00 0.00 0.00 0.00
0.00 0.00 0.00 0.00 0.00 0.00 0.00 0.00 0.00 0.00 0.00 0.00 0.00 0.00 0.00 0.00 0.00 0.00 0.00 0.00 0.00 0.00 0.00 0.00 0.00 0.00 0.00 0.00 0.00 0.00 0.00 0.00 0.00 0.00 0.00 0.00 0.00 0.00 0.00 0.00 0.00 0.00 0.00 0.00 0.00 0.00 0.00 0.00 0.00
MSLP
1014.91 1015.15 1015.53 1015.98 1016.46 1016.89 1017.22 1017.43 1017.52 1017.49 1017.40 1017.28 1017.16 1017.09 1017.07 1017.09 1017.15 1017.24 1017.35 1017.48 1017.64 1017.85 1018.12 1018.46 1018.86 1019.29 1019.73 1020.14 1020.49 1020.78 1020.99 1021.14 1021.24 1021.33 1021.41 1021.51 1021.60 1021.69 1021.76 1021.80 1021.80 1021.77 1021.72 1021.65 1021.59 1021.53 1021.49 1021.45 1021.40
1015.10 1015.44 1015.87 1016.34 1016.77 1017.11 1017.31 1017.38 1017.32 1017.17 1016.99 1016.82 1016.72 1016.68 1016.72 1016.82 1016.94 1017.08 1017.22 1017.38 1017.55 1017.78 1018.07 1018.44 1018.87 1019.34 1019.82 1020.26 1020.64 1020.94 1021.16 1021.32 1021.44 1021.56 1021.68 1021.81 1021.96 1022.09 1022.20 1022.27 1022.29 1022.26 1022.20 1022.12 1022.05 1021.99 1021.95 1021.91 1021.86
1015.37 1015.77 1016.23 1016.67 1017.03 1017.26 1017.32 1017.24 1017.04 1016.79 1016.55 1016.37 1016.29 1016.32 1016.44 1016.62 1016.83 1017.03 1017.21 1017.39 1017.57 1017.80 1018.10 1018.48 1018.92 1019.41 1019.91 1020.37 1020.76 1021.07 1021.30 1021.47 1021.61 1021.75 1021.90 1022.08 1022.26 1022.43 1022.57 1022.66 1022.68 1022.66 1022.60 1022.52 1022.44 1022.38 1022.34 1022.30 1022.27
1015.67 1016.11 1016.56 1016.96 1017.23 1017.34 1017.27 1017.06 1016.75 1016.43 1016.15 1015.98 1015.95 1016.06 1016.27 1016.53 1016.82 1017.08 1017.30 1017.49 1017.69 1017.91 1018.20 1018.57 1019.01 1019.50 1019.99 1020.45 1020.84 1021.16 1021.39 1021.58 1021.73 1021.90 1022.08 1022.28 1022.49 1022.69 1022.85 1022.94 1022.98 1022.95 1022.89 1022.81 1022.74 1022.69 1022.65 1022.63 1022.60
1015.94 1016.39 1016.82 1017.15 1017.34 1017.35 1017.18 1016.88 1016.50 1016.13 1015.86 1015.72 1015.74 1015.91 1016.20 1016.55 1016.89 1017.20 1017.45 1017.66 1017.85 1018.06 1018.33 1018.68 1019.11 1019.58 1020.06 1020.51 1020.89 1021.21 1021.45 1021.65 1021.83 1022.01 1022.21 1022.44 1022.67 1022.88 1023.04 1023.14 1023.18 1023.15 1023.09 1023.02 1022.96 1022.92 1022.90 1022.89 1022.87
1016.14 1016.58 1016.96 1017.24 1017.35 1017.29 1017.06 1016.71 1016.31 1015.94 1015.68 1015.58 1015.66 1015.89 1016.23 1016.63 1017.01 1017.35 1017.61 1017.82 1018.01 1018.21 1018.46 1018.78 1019.18 1019.63 1020.09 1020.53 1020.92 1021.23 1021.49 1021.71 1021.90 1022.11 1022.34 1022.58 1022.81 1023.03 1023.19 1023.28 1023.31 1023.28 1023.23 1023.16 1023.11 1023.08 1023.07 1023.07 1023.06
1016.26 1016.65 1016.99 1017.21 1017.27 1017.17 1016.92 1016.57 1016.18 1015.85 1015.63 1015.57 1015.68 1015.94 1016.31 1016.72 1017.12 1017.46 1017.73 1017.93 1018.11 1018.30 1018.53 1018.84 1019.22 1019.65 1020.09 1020.52 1020.91 1021.24 1021.52 1021.76 1021.99 1022.22 1022.46 1022.71 1022.95 1023.16 1023.30 1023.39 1023.40 1023.37 1023.31 1023.25 1023.21 1023.19 1023.18 1023.18 1023.16
1016.31 1016.65 1016.92 1017.09 1017.12 1017.01 1016.77 1016.45 1016.11 1015.82 1015.64 1015.62 1015.75 1016.02 1016.38 1016.78 1017.16 1017.49 1017.74 1017.94 1018.12 1018.30 1018.53 1018.83 1019.19 1019.61 1020.05 1020.48 1020.87 1021.22 1021.53 1021.81 1022.07 1022.34 1022.60 1022.86 1023.09 1023.28 1023.41 1023.47 1023.48 1023.43 1023.37 1023.31 1023.26 1023.24 1023.22 1023.20 1023.17
1016.33 1016.60 1016.81 1016.92 1016.93 1016.82 1016.61 1016.34 1016.06 1015.82 1015.69 1015.68 1015.81 1016.06 1016.39 1016.75 1017.10 1017.40 1017.64 1017.84 1018.02 1018.21 1018.44 1018.74 1019.10 1019.51 1019.95 1020.39 1020.80 1021.18 1021.52 1021.84 1022.14 1022.44 1022.72 1022.99 1023.22 1023.39 1023.50 1023.54 1023.52 1023.46 1023.39 1023.32 1023.27 1023.23 1023.20 1023.16 1023.10
1016.36 1016.55 1016.69 1016.75 1016.74 1016.64 1016.46 1016.24 1016.01 1015.81 1015.70 1015.69 1015.80 1016.00 1016.28 1016.60 1016.91 1017.19 1017.42 1017.63 1017.82 1018.03 1018.28 1018.58 1018.95 1019.37 1019.81 1020.25 1020.68 1021.09 1021.47 1021.83 1022.17 1022.50 1022.80 1023.07 1023.29 1023.44 1023.53 1023.55 1023.51 1023.44 1023.36 1023.28 1023.22 1023.17 1023.12 1023.06 1022.97
1016.43 1016.54 1016.61 1016.62 1016.58 1016.48 1016.32 1016.13 1015.93 1015.76 1015.64 1015.61 1015.68 1015.83 1016.06 1016.32 1016.60 1016.86 1017.09 1017.32 1017.54 1017.78 1018.05 1018.38 1018.76 1019.18 1019.62 1020.07 1020.52 1020.95 1021.36 1021.75 1022.12 1022.47 1022.78 1023.05 1023.26 1023.40 1023.47 1023.47 1023.42 1023.35 1023.26 1023.18 1023.12 1023.06 1023.00 1022.92 1022.80
1016.54 1016.58 1016.59 1016.55 1016.47 1016.36 1016.20 1016.02 1015.82 1015.64 1015.50 1015.43 1015.44 1015.53 1015.70 1015.92 1016.17 1016.43 1016.68 1016.94 1017.20 1017.48 1017.79 1018.14 1018.53 1018.96 1019.40 1019.86 1020.31 1020.76 1021.18 1021.59 1021.98 1022.33 1022.65 1022.92 1023.12 1023.25 1023.31 1023.30 1023.25 1023.18 1023.10 1023.04 1022.98 1022.92 1022.85 1022.76 1022.62
1016.68 1016.68 1016.63 1016.54 1016.43 1016.29 1016.11 1015.90 1015.68 1015.46 1015.27 1015.14 1015.08 1015.11 1015.23 1015.42 1015.66 1015.93 1016.21 1016.52 1016.82 1017.15 1017.50 1017.88 1018.28 1018.72 1019.16 1019.62 1020.07 1020.52 1020.94 1021.36 1021.74 1022.10 1022.41 1022.67 1022.86 1022.98 1023.04 1023.04 1023.01 1022.96 1022.90 1022.86 1022.81 1022.76 1022.70 1022.60 1022.45
1016.82 1016.80 1016.72 1016.60 1016.45 1016.27 1016.04 1015.79 1015.50 1015.21 1014.95 1014.74 1014.62 1014.59 1014.67 1014.83 1015.08 1015.37 1015.70 1016.05 1016.42 1016.80 1017.19 1017.59 1018.02 1018.46 1018.91 1019.37 1019.82 1020.25 1020.68 1021.08 1021.46 1021.80 1022.10 1022.34 1022.53 1022.65 1022.72 1022.75 1022.74 1022.72 1022.70 1022.68 1022.66 1022.63 1022.57 1022.47 1022.32
1016.94 1016.91 1016.82 1016.69 1016.51 1016.29 1016.01 1015.68 1015.31 1014.93 1014.57 1014.28 1014.08 1013.99 1014.04 1014.19 1014.45 1014.78 1015.16 1015.57 1015.99 1016.41 1016.85 1017.29 1017.74 1018.20 1018.66 1019.12 1019.57 1020.00 1020.42 1020.81 1021.17 1021.49 1021.78 1022.01 1022.20 1022.33 1022.42 1022.47 1022.50 1022.52 1022.53 1022.55 1022.55 1022.54 1022.49 1022.39 1022.24
1017.00 1017.00 1016.93 1016.80 1016.60 1016.34 1015.99 1015.57 1015.10 1014.61 1014.15 1013.76 1013.48 1013.35 1013.36 1013.52 1013.80 1014.17 1014.60 1015.06 1015.53 1016.00 1016.48 1016.96 1017.43 1017.92 1018.40 1018.88 1019.34 1019.79 1020.20 1020.59 1020.94 1021.25 1021.52 1021.74 1021.93 1022.08 1022.19 1022.27 1022.34 1022.40 1022.45 1022.49 1022.52 1022.52 1022.47 1022.37 1022.21
1017.01 1017.05 1017.02 1016.91 1016.71 1016.40 1015.99 1015.47 1014.89 1014.28 1013.70 1013.21 1012.86 1012.68 1012.67 1012.83 1013.14 1013.55 1014.02 1014.52 1015.04 1015.56 1016.07 1016.58 1017.10 1017.62 1018.13 1018.64 1019.14 1019.61 1020.04 1020.43 1020.78 1021.09 1021.35 1021.58 1021.78 1021.94 1022.08 1022.20 1022.31 1022.40 1022.48 1022.54 1022.58 1022.58 1022.53 1022.42 1022.25
1016.96 1017.07 1017.09 1017.01 1016.81 1016.47 1015.98 1015.37 1014.67 1013.93 1013.24 1012.65 1012.23 1012.00 1011.98 1012.15 1012.48 1012.92 1013.44 1013.99 1014.54 1015.09 1015.64 1016.18 1016.73 1017.28 1017.85 1018.40 1018.94 1019.45 1019.91 1020.33 1020.70 1021.01 1021.29 1021.53 1021.74 1021.93 1022.10 1022.26 1022.40 1022.52 1022.61 1022.69 1022.72 1022.72 1022.65 1022.54 1022.36
1016.88 1017.05 1017.13 1017.09 1016.89 1016.52 1015.96 1015.25 1014.43 1013.57 1012.76 1012.08 1011.59 1011.33 1011.30 1011.49 1011.85 1012.33 1012.88 1013.46 1014.04 1014.62 1015.18 1015.75 1016.32 1016.92 1017.52 1018.13 1018.72 1019.28 1019.79 1020.25 1020.65 1021.00 1021.30 1021.56 1021.80 1022.02 1022.23 1022.41 1022.58 1022.72 1022.83 1022.90 1022.93 1022.92 1022.84 1022.72 1022.53
1016.76 1017.00 1017.14 1017.13 1016.94 1016.53 1015.91 1015.10 1014.16 1013.20 1012.28 1011.53 1010.98 1010.70 1010.68 1010.88 1011.28 1011.80 1012.39 1012.99 1013.59 1014.16 1014.73 1015.30 1015.89 1016.51 1017.15 1017.80 1018.44 1019.05 1019.62 1020.13 1020.58 1020.97 1021.31 1021.61 1021.89 1022.15 1022.39 1022.61 1022.80 1022.96 1023.08 1023.15 1023.18 1023.15 1023.08 1022.95 1022.77
1016.62 1016.92 1017.11 1017.14 1016.94 1016.50 1015.81 1014.91 1013.88 1012.81 1011.82 1011.00 1010.42 1010.13 1010.12 1010.37 1010.80 1011.36 1011.98 1012.60 1013.20 1013.77 1014.33 1014.88 1015.47 1016.08 1016.73 1017.41 1018.09 1018.75 1019.37 1019.93 1020.43 1020.87 1021.27 1021.62 1021.95 1022.25 1022.53 1022.78 1023.00 1023.18 1023.31 1023.39 1023.42 1023.40 1023.32 1023.21 1023.05
1016.45 1016.80 1017.03 1017.08 1016.88 1016.41 1015.66 1014.69 1013.57 1012.43 1011.37 1010.51 1009.93 1009.65 1009.67 1009.96 1010.44 1011.05 1011.69 1012.32 1012.92 1013.47 1013.99 1014.51 1015.06 1015.65 1016.29 1016.97 1017.66 1018.36 1019.01 1019.63 1020.18 1020.68 1021.13 1021.54 1021.91 1022.26 1022.59 1022.88 1023.13 1023.33 1023.48 1023.57 1023.62 1023.61 1023.56 1023.48 1023.36
1016.23 1016.62 1016.89 1016.95 1016.75 1016.25 1015.46 1014.43 1013.26 1012.07 1010.98 1010.11 1009.53 1009.28 1009.35 1009.68 1010.22 1010.86 1011.53 1012.16 1012.75 1013.27 1013.75 1014.22 1014.71 1015.25 1015.86 1016.51 1017.20 1017.90 1018.59 1019.24 1019.84 1020.39 1020.89 1021.35 1021.79 1022.19 1022.56 1022.88 1023.17 1023.40 1023.57 1023.69 1023.76 1023.78 1023.76 1023.72 1023.64
1015.93 1016.36 1016.66 1016.73 1016.53 1016.01 1015.20 1014.14 1012.95 1011.74 1010.66 1009.80 1009.25 1009.04 1009.15 1009.54 1010.12 1010.79 1011.47 1012.11 1012.68 1013.16 1013.59 1014.00 1014.43 1014.92 1015.46 1016.08 1016.74 1017.44 1018.13 1018.80 1019.44 1020.03 1020.58 1021.10 1021.58 1022.03 1022.44 1022.81 1023.13 1023.39 1023.59 1023.73 1023.82 1023.87 1023.89 1023.89 1023.86
1015.53 1015.99 1016.31 1016.40 1016.20 1015.69 1014.88 1013.83 1012.65 1011.47 1010.41 1009.59 1009.08 1008.92 1009.08 1009.50 1010.11 1010.80 1011.49 1012.13 1012.67 1013.12 1013.50 1013.86 1014.23 1014.65 1015.14 1015.71 1016.34 1017.01 1017.71 1018.39 1019.05 1019.67 1020.26 1020.82 1021.34 1021.83 1022.28 1022.68 1023.02 1023.31 1023.53 1023.69 1023.81 1023.88 1023.93 1023.96 1023.97
1015.01 1015.50 1015.84 1015.94 1015.76 1015.27 1014.49 1013.48 1012.36 1011.23 1010.23 1009.47 1009.02 1008.90 1009.09 1009.53 1010.15 1010.85 1011.54 1012.16 1012.68 1013.10 1013.45 1013.76 1014.09 1014.47 1014.91 1015.44 1016.03 1016.68 1017.36 1018.04 1018.72 1019.36 1019.98 1020.56 1021.11 1021.63 1022.10 1022.52 1022.88 1023.18 1023.41 1023.59 1023.72 1023.80 1023.87 1023.91 1023.94
1014.37 1014.88 1015.23 1015.35 1015.19 1014.74 1014.02 1013.09 1012.05 1011.01 1010.10 1009.41 1009.01 1008.93 1009.13 1009.58 1010.19 1010.86 1011.53 1012.13 1012.64 1013.04 1013.38 1013.68 1013.98 1014.33 1014.75 1015.25 1015.83 1016.45 1017.12 1017.80 1018.47 1019.12 1019.75 1020.35 1020.92 1021.44 1021.93 1022.36 1022.72 1023.02 1023.26 1023.43 1023.55 1023.64 1023.69 1023.73 1023.76
1013.63 1014.14 1014.49 1014.62 1014.50 1014.10 1013.45 1012.62 1011.69 1010.76 1009.95 1009.35 1009.00 1008.94 1009.15 1009.58 1010.15 1010.79 1011.42 1012.00 1012.49 1012.89 1013.23 1013.54 1013.85 1014.21 1014.63 1015.13 1015.69 1016.31 1016.96 1017.63 1018.30 1018.95 1019.58 1020.18 1020.75 1021.28 1021.76 1022.19 1022.55 1022.84 1023.06 1023.22 1023.32 1023.38 1023.41 1023.43 1023.42
1012.81 1013.30 1013.64 1013.77 1013.66 1013.32 1012.76 1012.04 1011.24 1010.44 1009.74 1009.22 1008.93 1008.89 1009.08 1009.47 1009.99 1010.57 1011.16 1011.70 1012.19 1012.60 1012.97 1013.31 1013.66 1014.05 1014.50 1015.01 1015.58 1016.20 1016.85 1017.51 1018.16 1018.80 1019.42 1020.02 1020.58 1021.10 1021.57 1021.99 1022.34 1022.62 1022.82 1022.96 1023.03 1023.06 1023.05 1023.02 1022.98
1011.96 1012.40 1012.69 1012.80 1012.71 1012.42 1011.94 1011.34 1010.66 1010.00 1009.41 1008.98 1008.74 1008.71 1008.88 1009.21 1009.67 1010.19 1010.73 1011.24 1011.72 1012.16 1012.56 1012.96 1013.37 1013.81 1014.31 1014.85 1015.44 1016.06 1016.70 1017.35 1017.99 1018.62 1019.23 1019.81 1020.36 1020.87 1021.33 1021.74 1022.08 1022.35 1022.53 1022.64 1022.69 1022.68 1022.63 1022.55 1022.46
Thickness
5740 5744 5747 5744 5734 5725 5721 5727 5735 5734 5738 5746 5746 5744 5744 5743 5739 5733 5740 5743 5741 5737 5732 5726 5723 5720 5717 5715 5713 5711 5709 5707 5705 5704 5702 5701 5700 5698 5697 5696 5694 5693 5692 5692 5691 5690 5690 5689 5689
5743 5745 5744 5740 5725 5716 5719 5730 5732 5737 5742 5744 5744 5744 5744 5744 5747 5744 5740 5739 5738 5734 5730 5726 5721 5718 5715 5712 5710 5707 5705 5703 5701 5700 5698 5696 5695 5693 5692 5690 5689 5687 5686 5685 5685 5684 5683 5683 5682
5744 5745 5740 5732 5722 5722 5723 5732 5737 5739 5742 5743 5742 5744 5745 5744 5745 5745 5744 5738 5735 5731 5728 5724 5718 5715 5712 5709 5707 5704 5702 5700 5697 5695 5694 5691 5690 5688 5686 5684 5683 5681 5680 5679 5678 5678 5677 5677 5676
5744 5741 5738 5729 5721 5728 5732 5737 5739 5737 5737 5742 5743 5741 5744 5744 5746 5745 5740 5736 5734 5729 5726 5721 5716 5712 5709 5706 5703 5701 5698 5696 5693 5691 5689 5686 5684 5682 5680 5678 5677 5676 5674 5673 5672 5671 5671 5670 5670
5743 5739 5727 5721 5723 5730 5736 5738 5738 5737 5738 5741 5741 5740 5740 5742 5742 5740 5737 5734 5732 5728 5723 5718 5713 5709 5706 5703 5700 5697 5694 5691 5689 5686 5684 5681 5679 5676 5674 5673 5671 5670 5669 5667 5666 5665 5665 5664 5663
5736 5735 5723 5718 5722 5729 5736 5738 5738 5738 5739 5740 5739 5739 5741 5740 5739 5737 5735 5731 5729 5725 5720 5716 5710 5706 5703 5699 5696 5693 5690 5687 5684 5681 5679 5676 5674 5671 5669 5667 5665 5664 5662 5661 5660 5659 5659 5658 5657
5732 5728 5722 5722 5721 5725 5733 5738 5738 5738 5737 5739 5742 5738 5742 5740 5737 5734 5732 5729 5726 5721 5717 5714 5708 5703 5699 5696 5692 5689 5686 5683 5680 5677 5674 5671 5669 5667 5664 5662 5660 5658 5657 5656 5655 5654 5653 5652 5651
5736 5730 5719 5720 5720 5724 5733 5735 5738 5739 5739 5743 5742 5738 5739 5739 5732 5730 5727 5725 5722 5718 5715 5712 5708 5703 5698 5694 5689 5685 5682 5679 5675 5672 5669 5666 5664 5662 5659 5657 5655 5653 5652 5651 5650 5649 5648 5646 5645
5732 5723 5716 5718 5720 5725 5732 5732 5735 5738 5739 5737 5740 5740 5735 5731 5728 5724 5721 5718 5717 5715 5713 5710 5706 5702 5697 5693 5687 5682 5678 5675 5671 5668 5665 5662 5661 5659 5655 5653 5650 5649 5647 5646 5645 5643 5642 5641 5640
5725 5715 5717 5723 5727 5727 5729 5731 5733 5732 5732 5733 5735 5734 5728 5725 5724 5722 5720 5717 5715 5713 5711 5708 5704 5699 5694 5690 5685 5680 5676 5672 5669 5666 5662 5659 5657 5654 5651 5648 5646 5644 5643 5641 5640 5638 5637 5637 5637
5720 5716 5720 5722 5726 5726 5726 5728 5731 5729 5727 5735 5737 5738 5729 5724 5723 5723 5723 5721 5717 5713 5709 5706 5701 5696 5692 5687 5682 5678 5674 5669 5666 5663 5659 5655 5652 5650 5647 5645 5643 5641 5639 5638 5636 5635 5634 5633 5631
5714 5716 5718 5721 5721 5721 5723 5726 5727 5728 5733 5742 5742 5740 5731 5726 5725 5725 5724 5722 5717 5711 5707 5703 5698 5693 5688 5684 5680 5675 5671 5666 5663 5658 5655 5652 5649 5646 5644 5641 5639 5637 5635 5633 5632 5630 5629 5627 5625
5708 5711 5714 5716 5716 5718 5719 5721 5725 5729 5738 5739 5735 5732 5732 5730 5729 5727 5725 5721 5714 5709 5705 5701 5696 5691 5685 5681 5676 5672 5668 5663 5659 5654 5651 5648 5645 5642 5639 5638 5635 5633 5630 5628 5626 5625 5624 5622 5620
5704 5706 5709 5711 5713 5713 5713 5720 5719 5729 5736 5733 5731 5731 5732 5731 5728 5725 5721 5717 5713 5708 5704 5699 5693 5688 5683 5678 5673 5669 5664 5659 5655 5651 5647 5644 5641 5638 5635 5633 5630 5628 5625 5622 5620 5619 5617 5615 5614
5697 5697 5703 5706 5707 5709 5707 5711 5719 5731 5731 5729 5731 5732 5730 5729 5726 5723 5721 5716 5713 5708 5703 5698 5691 5686 5680 5675 5670 5665 5660 5656 5652 5647 5644 5640 5636 5633 5631 5628 5625 5622 5619 5616 5614 5612 5610 5608 5607
5689 5688 5689 5699 5699 5699 5698 5706 5722 5726 5723 5725 5730 5732 5728 5726 5724 5723 5720 5715 5711 5706 5701 5696 5689 5683 5678 5672 5667 5662 5657 5652 5648 5644 5640 5636 5632 5629 5626 5623 5620 5616 5613 5610 5608 5606 5604 5602 5600
5678 5680 5682 5688 5692 5693 5693 5702 5716 5719 5717 5722 5728 5730 5728 5726 5723 5721 5717 5713 5709 5704 5699 5693 5686 5680 5675 5668 5662 5657 5652 5647 5643 5639 5635 5630 5627 5623 5620 5617 5613 5609 5606 5603 5600 5598 5596 5594 5591
5670 5672 5673 5677 5685 5684 5687 5699 5712 5719 5717 5720 5726 5728 5727 5725 5724 5721 5715 5710 5705 5700 5696 5690 5683 5677 5670 5663 5658 5652 5647 5642 5638 5634 5629 5625 5621 5618 5614 5610 5606 5603 5599 5596 5593 5590 5586 5584 5581
5666 5666 5668 5674 5678 5673 5683 5695 5708 5716 5717 5718 5722 5725 5725 5724 5723 5716 5710 5705 5700 5695 5690 5686 5680 5673 5666 5660 5654 5648 5642 5637 5632 5627 5623 5619 5615 5611 5607 5603 5599 5595 5592 5588 5585 5581 5578 5575 5571
5656 5656 5663 5670 5667 5666 5677 5690 5707 5713 5714 5718 5719 5722 5723 5721 5716 5709 5704 5700 5696 5692 5686 5681 5676 5669 5662 5657 5651 5645 5638 5632 5627 5620 5616 5612 5608 5604 5600 5596 5592 5587 5583 5579 5575 5571 5569 5565 5560
5649 5652 5657 5658 5662 5662 5663 5685 5703 5711 5710 5710 5712 5714 5716 5714 5712 5706 5700 5695 5691 5686 5682 5676 5671 5664 5658 5651 5644 5636 5629 5623 5618 5614 5610 5605 5601 5596 5592 5588 5584 5578 5575 5571 5566 5561 5558 5556 5551
5645 5652 5649 5647 5648 5657 5655 5663 5696 5704 5704 5706 5708 5709 5709 5708 5705 5701 5696 5690 5685 5680 5675 5670 5665 5658 5652 5646 5640 5635 5629 5624 5619 5612 5605 5598 5593 5589 5584 5579 5574 5570 5565 5561 5556 5551 5547 5543 5541
5646 5644 5640 5639 5641 5645 5652 5650 5684 5697 5697 5703 5704 5703 5702 5699 5697 5693 5689 5684 5678 5672 5666 5662 5657 5651 5646 5641 5636 5632 5626 5621 5612 5605 5598 5592 5586 5580 5575 5570 5565 5560 5556 5551 5546 5541 5536 5532 5529
5633 5632 5627 5629 5634 5634 5651 5646 5669 5692 5693 5696 5699 5699 5696 5691 5687 5685 5680 5675 5669 5662 5657 5653 5649 5644 5639 5634 5630 5626 5621 5613 5605 5598 5592 5585 5578 5572 5566 5561 5556 5551 5546 5541 5535 5530 5526 5521 5517
5629 5628 5622 5623 5626 5637 5639 5637 5662 5688 5687 5686 5687 5689 5688 5684 5680 5676 5671 5666 5661 5655 5651 5647 5643 5637 5632 5628 5624 5619 5614 5607 5601 5594 5587 5580 5573 5566 5559 5553 5548 5542 5536 5530 5525 5520 5516 5511 5507
5628 5631 5625 5621 5628 5634 5626 5635 5668 5682 5679 5678 5678 5679 5678 5675 5672 5667 5664 5660 5655 5649 5644 5641 5637 5632 5626 5621 5617 5612 5606 5600 5594 5587 5580 5574 5567 5560 5552 5545 5539 5533 5527 5521 5515 5511 5506 5501 5496
5622 5624 5635 5625 5618 5617 5634 5647 5663 5675 5673 5671 5672 5672 5672 5668 5663 5660 5656 5652 5648 5643 5638 5635 5630 5625 5619 5614 5609 5604 5598 5592 5586 5579 5572 5565 5558 5550 5543 5536 5529 5523 5517 5511 5506 5501 5497 5491 5487
5628 5627 5614 5612 5608 5612 5628 5635 5651 5663 5666 5667 5667 5666 5665 5661 5657 5653 5649 5645 5641 5636 5632 5627 5623 5618 5612 5607 5602 5596 5591 5584 5577 5570 5563 5556 5549 5541 5534 5527 5521 5514 5508 5502 5496 5492 5487 5482 5477
5612 5612 5619 5619 5619 5616 5620 5638 5658 5659 5659 5658 5659 5660 5659 5656 5653 5649 5644 5640 5635 5630 5624 5620 5615 5611 5605 5600 5595 5588 5582 5575 5569 5562 5555 5548 5540 5532 5525 5518 5512 5506 5500 5494 5488 5483 5478 5473 5469
5622 5623 5620 5613 5612 5613 5618 5635 5657 5652 5651 5649 5651 5653 5652 5649 5647 5643 5639 5634 5629 5624 5619 5615 5610 5605 5600 5594 5588 5581 5574 5567 5561 5554 5547 5539 5531 5524 5517 5510 5503 5497 5491 5485 5480 5475 5469 5465 5460